{"data":{"norad_id":40970,"intl_designator":"2015-058G","name":"SNAP-3 ALICE","alt_names":[],"object_type":"PAYLOAD","status":"ACTIVE","operator":null,"country":"US","launch_date":"2015-10-08","launch_site_code":"AFWTR","launch_vehicle":null,"mission":null,"orbit_class":"UNKNOWN","rcs_meters":null,"size_class":null,"mass_kg":null,"dimensions":null,"purposes":["tech_demo"],"wikipedia_slug":null,"has_3d_model":false,"image_url":null,"decayed_at":null,"tle_current":{"epoch":"2026-05-25T04:27:15.801120Z","epoch_age_seconds":65821,"freshness":"FRESH","line1":"1 40970U 15058G   26145.18559955  .00082064  00000+0  11824-2 0  9991","line2":"2 40970  64.7513 183.1204 0033681  23.5967 336.6712 15.54885569113302","mean_motion":15.54885569,"eccentricity":0.0033681,"inclination_deg":64.7513,"raan_deg":183.1204,"arg_perigee_deg":23.5967,"mean_anomaly_deg":336.6712,"bstar":0.0011824,"rev_number":11330,"period_min":92.611316788162,"perigee_km":379.64747264096,"apogee_km":425.32310048772,"semimajor_km":6780.6222865643,"source":"CELESTRAK","updated_at":"2026-05-25T13:38:25.526023Z"}}}